THOR ABLESTAR DEB, 475

Orbit data source: Space-Track

THOR ABLESTAR DEB, 475 is space debris in LEO originally from a launch on Thu, 29 Jun 1961 UTC launched from the Air Force Eastern Test Range (AFETR). Debris objects in space refer to the collection of defunct objects orbiting the Earth. Examples of debris include non-operational satellites, rocket bodies, and fragments generated from explosions, collisions, or faulty payload assembly.

Loading next visibility...
Identifier
475, 1961-015FM
Orbit
LEO
Country
Flag of USUS
Related business
Manufacturer
Unknown
Mission
Spacecraft
Bus & Motor
Unknown
Mass
Unknown
Launch date (UTC)
1961-06-29 (64 years ago)
Launch vehicle
Unknown
Launch site
Air Force Eastern Test Range (AFETR)
Object type
Payload
Rocket body
Debris
Shape & HBR
Unknown shape, 0.1 m
Radar Cross Section
Small (<0.1 m²)

Expand to show TLE details & history
Last TLE update: 13 hours ago

TLE from 13 hours ago
0 THOR ABLESTAR DEB
1 00475U 61015FM  25346.74285743  .00006066  00000-0  24578-2 0  9995
2 00475  66.2205 149.5608 0144534 222.4118 136.5731 14.22811749261254
Epoch: 2025-12-12T17:49Z
TLE epoch observation values (Epoch: 2025-12-12T17:49:42.881Z)
Latitude
-0.00008°
Longitude
160.45199°
Altitude
894.143 km
Speed
7.366 km/s
True Right ascension
09h 58m 14s
True Declination
0° 00' 00"
Sunlit
Object was in daylight at epoch
Visualization orbit readout
Latitude
Unknown
Longitude
Unknown
Altitude
Unknown
Speed
Unknown
Apparent Right ascension
Unknown
Apparent Declination
Unknown
Sunlit
N/A
Visualization observer readout
Local Sidereal Time
05:22:30
Azimuth
Unknown
Elevation
Unknown
Doppler factor
Unknown
Orbital elements
Apogee altitude
918.251 km
Perigee altitude
710.34 km
Semi-major axis
7,192.433 km
Eccentricity
0.01445
Inclination
66.2205°
RAAN
149.5608°
Arg. of periapsis
222.4118°
True anomaly
137.69682°
Mean anomaly
136.5731°
Eccentric anomaly
137.13643°
Mean motion
3.55819 °/min
Orbital period
101.17 mins
BSTAR
0.0024578
Loading maneuver chart data...
Computing Atmospheric mass density...
Loading historical data...
Loading historical data...
Loading historical data...
Loading historical data...
Loading historical data...
Loading historical data...
Loading historical data...

Documentation

Showing up to 5 results
|